Location: Sun City Center
(27.6996°N, 82.3528°W)
Time: 19:13:26
(UTC-05:00)

Envisat - Visible Passes

Search period start: 14 November 2018 00:00
Search period end: 24 November 2018 00:00
Orbit: 764 x 766 km, 98.2° (Epoch: 14 November)

Date Brightness Start Highest point End Pass type
(mag) Time Alt. Az. Time Alt. Az. Time Alt. Az.
14 Nov 3.2 19:24:43 10° SSE 19:30:48 54° NNE 19:34:49 10° N visible
15 Nov 3.9 18:48:55 10° SE 18:53:52 27° ENE 18:57:29 10° NNE visible
15 Nov 5.3 20:28:06 10° SSW 20:34:04 19° WNW 20:36:06 10° NW visible
16 Nov 4.7 18:16:54 11° ENE 18:16:54 11° ENE 18:18:20 10° NE visible
16 Nov 4.1 19:50:17 10° S 19:57:07 37° NW 20:00:17 10° NNW visible
17 Nov 3.6 19:13:41 10° SSE 19:20:08 39° NNE 19:23:32 10° N visible
17 Nov 6.0 20:56:03 10° WSW 21:00:21 - WNW 20:56:11 10° WSW visible
18 Nov 4.2 18:38:18 10° ESE 18:43:09 20° NE 18:45:54 10° NNE visible
18 Nov 4.9 20:16:26 10° SSW 20:23:22 20° NW 20:25:19 10° NW visible
19 Nov 3.9 19:39:01 10° S 19:46:22 34° NNW 19:49:10 10° NNW visible
20 Nov 3.9 19:02:45 10° SE 19:09:21 29° NNE 19:12:11 10° N visible
20 Nov 5.7 20:43:31 10° SW 20:49:34 10° WNW 20:49:34 10° WNW visible
21 Nov 4.5 18:27:53 10° ESE 18:32:19 15° NE 18:34:10 10° NNE visible
21 Nov 4.4 20:04:55 10° SSW 20:12:32 21° NW 20:14:24 10° NNW visible
22 Nov 3.6 19:27:51 10° SSE 19:35:29 30° N 19:37:59 10° N visible
23 Nov 4.2 18:51:55 10° SE 18:58:25 23° NNE 19:00:45 10° NNE visible
23 Nov 5.3 20:31:31 10° SW 20:38:38 12° NW 20:39:04 10° NW visible
